Regional Weather Roundup
Issued by NWS Charleston, WV

Home | Current Version | Previous Version | Graphics & Text | Print | Product List | Glossary On
Versions: 1 2 3 4 5 6 7 8 9 10 11 12 13 14 15 16 17 18 19 20 21 22 23 24 25 26 27 28 29 30 31 32 33 34 35 36 37 38 39 40 41 42 43 44 45 46 47 48 49 50
000
ASUS41 KRLX 180810
RWRRLX
West Virginia Regional Weather Roundup
National Weather Service Charleston WV
300 AM EST WED JAN 18 2017

Note: "fair" indicates few or no clouds below 12,000 feet with no
significant weather and/or obstructions to visibility.

WVZ003-180900-
Northern Panhandle of West Virginia

CITY           SKY/WX    TMP DP  RH WIND       PRES   REMARKS
WHEELING       CLOUDY    46  40  79 W14       29.96R
$$

WVZ009-180900-
Northwest West Virginia

CITY           SKY/WX    TMP DP  RH WIND       PRES   REMARKS
PARKERSBURG    CLOUDY    48  39  71 W7        30.04R
$$

WVZ006-180900-
Western West Virginia

CITY           SKY/WX    TMP DP  RH WIND       PRES   REMARKS
HUNTINGTON     CLOUDY    47  39  74 W10G17    30.06R
$$

WVZ015-180900-
West Central West Virginia

CITY           SKY/WX    TMP DP  RH WIND       PRES   REMARKS
CHARLESTON     MOCLDY    50  41  71 NW12G22   30.02R
$$

WVZ022-031-180900-
North Central West Virginia

CITY           SKY/WX    TMP DP  RH WIND       PRES   REMARKS
CLARKSBURG     CLOUDY    49  41  74 W14G21    29.98R
MORGANTOWN     CLOUDY    49  39  68 W7        29.97R
$$

WVZ025-035-042-045-180900-
Southern West Virginia

CITY           SKY/WX    TMP DP  RH WIND       PRES   REMARKS
BECKLEY        MOCLDY    50  42  74 W10       29.99S
LOGAN          CLOUDY    52  45  76 CALM      30.01S
BLUEFIELD      PTCLDY    50  45  83 W15G24    29.99F
LEWISBURG      PTCLDY    51  42  71 W8G18     29.96F
$$

WVZ047-180900-
Northern Mountains of West Virginia

CITY           SKY/WX    TMP DP  RH WIND       PRES   REMARKS
ELKINS         CLOUDY    50  42  74 NW13      29.95R
$$

WVZ052-180900-
Eastern Panhandle of West Virginia

CITY           SKY/WX    TMP DP  RH WIND       PRES   REMARKS
MARTINSBURG    FOG       40  39  97 NE5       29.90R VSB 1/2
PETERSBURG     PTCLDY    58  45  60 W16G29    29.85F
$$




USA.gov is the U.S. government's official web portal to all federal, state and local government web resources and services.